Location: Bremen
(53.0793°N, 8.8017°E)
Time: 22:07:00
(UTC+02:00)

Envisat - Pass Details

Date: 05 March 2024
Orbit: 762 x 764 km, 98.3° (Epoch: 13 April)

Event Time Altitude Azimuth Distance (km) Brightness Sun altitude
Rises 02:10:10 0° 30° (NNE) 3,242 7.2 -39.1°
Reaches altitude 10° 02:14:31 10° 66° (ENE) 2,308 6.0 -38.8°
Maximum altitude 02:15:55 11° 82° (E) 2,233 5.8 -38.6°
Enters shadow 02:16:08 11° 85° (E) 2,234 5.7 -38.6°
